Home   Weather   Ann Arbor   Past weeks

Flag for USA Past Weather in Ann Arbor, Michigan, USA — Yesterday and Last 2 Weeks

Now
48 °F

Fog.


Feels Like: 48 °F
Forecast: 46 / 64 °F
Wind: No wind

Location: Ann Arbor Municipal Airport

Current Time: Feb 21, 2017 at 11:08:00 pm

Latest Report: Feb 21, 2017 at 9:53 pm


Visibility: 6 mi

Pressure: 29.94 "Hg

Humidity: 93%

Dew Point: 46 °F

Location of Ann ArborLocation

Past Weather in Ann Arbor — Graph

°F

Ann Arbor Temperature Yesterday

Maximum temperature yesterday: 54 °F (at 1:53 pm)
Minimum temperature yesterday: 29 °F (at 6:53 am)
Average temperature yesterday: 42 °F

High & Low Weather Summary for the Past Weeks

 TemperatureHumidityPressure
High67 °F (Feb 18, 2:53 pm)100% (Feb 7, 2:53 am)30.32 "Hg (Feb 7, 2:53 am)
Low13 °F (Feb 9, 10:53 pm)25% (Feb 19, 2:53 pm)29.27 "Hg (Feb 7, 5:22 pm)
Average35 °F73%29.89 "Hg
* Reported Feb 6 9:53 pm — Feb 21 9:53 pm, Ann Arbor, Weather by CustomWeather, © 2017

Note: Actual official high and low records may vary slightly from our data, if they occured in-between our weather recording intervals... More about our weather records

Advertising

Ann Arbor Weather History for the Previous 24 Hours

Scroll right to see more
 ConditionsComfort  
Time TempWeatherWind HumidityBarometerVisibility
9:53 pm
Tue, Feb 21
48 °FFog.No wind93%29.94 "Hg6 mi
8:53 pm46 °FFog.No wind96%29.96 "Hg5 mi
7:53 pm50 °FClear.3 mph93%29.95 "Hg8 mi
6:53 pm55 °FOvercast.No wind80%29.95 "Hg10 mi
5:53 pm56 °FOvercast.8 mph77%29.94 "Hg10 mi
4:53 pm60 °FOvercast.12 mph69%29.93 "Hg10 mi
3:53 pm60 °FScattered clouds.6 mph67%29.92 "Hg10 mi
2:53 pm58 °FOvercast.7 mph70%29.93 "Hg10 mi
1:53 pm56 °FOvercast.6 mph72%29.92 "Hg10 mi
12:53 pm51 °FOvercast.8 mph74%29.95 "Hg10 mi
11:53 am50 °FOvercast.3 mph77%29.95 "Hg8 mi
10:53 am47 °FMostly cloudy.3 mph74%29.97 "Hg10 mi
9:53 am43 °FBroken clouds.5 mph79%29.97 "Hg10 mi
8:53 am41 °FOvercast.3 mph80%29.99 "Hg10 mi
7:53 am39 °FSunny.3 mph82%29.98 "Hg10 mi
6:53 am37 °FClear.No wind86%29.99 "Hg10 mi
5:53 am37 °FClear.No wind82%30.00 "Hg10 mi
4:53 am37 °FClear.No wind82%30.02 "Hg10 mi
3:53 am36 °FClear.No wind82%30.01 "Hg10 mi
2:53 am37 °FClear.6 mph76%30.04 "Hg10 mi
1:53 am37 °FClear.3 mph76%30.06 "Hg10 mi
12:53 am37 °FClear.3 mph73%30.09 "Hg10 mi
11:53 pm
Mon, Feb 20
37 °FClear.6 mph73%30.12 "Hg10 mi
Weather by CustomWeather, © 2017

See weather overviewHow to use our weather pages